Khon Kaen, Thailand

11:13 PM +07 on August 22, 2017 (GMT +0700)
Khon Kaen

Weather History for VTUK - June, 2013

Change the Weather History Date:

Friday, June 21, 2013

  Actual Average Record
Temperature  
Mean Temperature 86 °F -  
Max Temperature 95 °F 91 °F - ()
Min Temperature 78 °F 76 °F - ()
Cooling Degree Days 22    
Growing Degree Days 36 (Base 50)    
Moisture  
Dew Point 76 °F    
Average Humidity 71    
Maximum Humidity 100    
Minimum Humidity 39    
Precipitation  
Precipitation 0.03 in 0.22 in - ()
Sea Level Pressure  
Sea Level Pressure 29.65 in    
Wind  
Wind Speed 3 mph ()    
Max Wind Speed 13 mph    
Max Gust Speed -    
Visibility 6.2 miles    
Events      
T = Trace of Precipitation, MM = Missing Value Source: Averaged Metar Reports

Daily Weather History Graph

Daily Weather History Graph

Search for Another Location

Airport or City:

Trip Planner

Search our weather history database for the weather conditions in past years. The results will help you decide how hot, cold, wet, or windy it might be!

Date:

Astronomy

Jun. 21, 2013 Rise Set
Actual Time 5:37 AM +07 6:43 PM +07
Civil Twilight 5:13 AM +07 7:07 PM +07
Nautical Twilight 4:44 AM +07 7:35 PM +07
Astronomical Twilight 4:15 AM +07 8:04 PM +07
Moon 4:29 PM +07 (6/21) 3:10 AM +07 (6/21)
Length of Visible Light 13h 54m
Length of Day
13h 06m
Waxing Gibbous, 92% of the Moon is Illuminated
Jun 21
Waxing Gibbous
Jun 23
Full
Jun 30
Last Quarter
Jul 8
New
Jul 16
First Quarter

Hourly Weather History & Observations

Time (+07) Temp. Heat Index Dew Point Humidity Pressure Visibility Wind Dir Wind Speed Gust Speed Precip Events Conditions
1:00 AM 78 °F - 76 °F 90% 29.65 in 6 mi Calm Calm - -   Partly Cloudy
3:00 AM 78.8 °F - 78.8 °F 100% 29.62 in 6.2 mi Calm Calm - N/A   Mostly Cloudy
5:00 AM 77.0 °F - 77.0 °F 100% 29.65 in 6.2 mi Calm Calm - N/A   Mostly Cloudy
6:00 AM 78.8 °F - 77.0 °F 94% 29.68 in 6.2 mi Variable 2.3 mph - N/A   Mostly Cloudy
7:00 AM 79 °F - 76 °F 86% 29.69 in 6 mi Calm Calm - -   Overcast
7:00 AM 78.8 °F - 77.0 °F 94% 29.71 in 6.2 mi Calm Calm - N/A   Mostly Cloudy
8:00 AM 82.4 °F 92.4 °F 78.8 °F 89% 29.71 in 6.2 mi SSW 3.5 mph - N/A   Scattered Clouds
9:00 AM 84.2 °F 84.4 °F 60.8 °F 45% 29.71 in 6.2 mi SSW 8.1 mph - N/A   Scattered Clouds
10:00 AM 86.0 °F 99.3 °F 78.8 °F 79% 29.71 in 6.2 mi WSW 9.2 mph - N/A   Partly Cloudy
11:00 AM 87.8 °F 99.7 °F 77.0 °F 70% 29.71 in 6.2 mi SW 8.1 mph - N/A   Scattered Clouds
12:00 PM 89.6 °F 102.2 °F 77.0 °F 66% 29.68 in 6.2 mi WSW 9.2 mph - N/A   Scattered Clouds
1:00 PM 92 °F - 70 °F 39% 29.66 in 6 mi WSW 12.7 mph - -   Partly Cloudy
1:00 PM 91.4 °F 102.5 °F 75.2 °F 59% 29.65 in 6.2 mi West 9.2 mph - N/A   Mostly Cloudy
2:00 PM 93.2 °F 107.2 °F 77.0 °F 59% 29.62 in 6.2 mi WSW 9.2 mph - N/A   Mostly Cloudy
3:00 PM 93.2 °F 102.4 °F 73.4 °F 52% 29.62 in 6.2 mi West 9.2 mph - N/A   Mostly Cloudy
4:00 PM 93.2 °F 105.0 °F 75.2 °F 56% 29.56 in 6.2 mi West 6.9 mph - N/A   Scattered Clouds
5:00 PM 91.4 °F 102.5 °F 75.2 °F 59% 29.56 in 6.2 mi WSW 5.8 mph - N/A   Mostly Cloudy
6:00 PM 91.4 °F 105.1 °F 77.0 °F 63% 29.59 in 6.2 mi North 4.6 mph - N/A   Mostly Cloudy
7:00 PM 90 °F - 74 °F 52% 29.57 in 6 mi NNE 4.6 mph - -   Overcast
7:00 PM 89.6 °F 102.2 °F 77.0 °F 66% 29.59 in 6.2 mi NNE 4.6 mph - N/A   Mostly Cloudy
8:00 PM 87.8 °F 102.5 °F 78.8 °F 75% 29.62 in 6.2 mi Calm Calm - N/A   Mostly Cloudy